Regional Weather Roundup
Issued by NWS

Home | Current Version | Previous Version | Graphics & Text | Print | Product List | Glossary On
Versions: 1 2 3 4 5 6 7 8 9 10 11 12 13 14 15 16 17 18 19 20 21 22 23 24 25 26 27 28 29 30 31 32 33 34 35 36 37 38 39 40 41 42 43 44 45 46 47 48 49 50
000
ASUS45 KABQ 281010
RWRNM
NEW MEXICO REGIONAL WEATHER ROUNDUP
NATIONAL WEATHER SERVICE ALBUQUERQUE NM
400 AM MDT FRI AUG 28 2015

NOTE: "FAIR" MEANS FEW OR NO CLOUDS BELOW 12,000 FEET AGL WITH NO
       SIGNIFICANT WEATHER OR OBSTRUCTIONS TO VISION.

      THIS PRODUCT IS RELEASED AS TWO VERSIONS.  ONE VERSION NEAR
      THE TOP OF THE HOUR CONTAINING PRELIMINARY DATA FROM ALBUQUERQUE
      AND OTHER STATIONS.  A FINAL VERSION WITH ADDITIONAL DATA IS
      ISSUED ABOUT 10 MINUTES AFTER THE HOUR.

NMZ501-503-504-510>518-281100-
NORTHWEST PLATEAU/NORTHCENTRAL MOUNTAINS

CITY           SKY/WX    TMP DP  RH WIND       PRES   REMARKS
FARMINGTON     CLEAR     58  52  80 NE7       30.21S
LOS ALAMOS     CLEAR     62  50  65 CALM      30.32S
SANTA FE       FAIR      59  50  72 N5        30.24S
TAOS           CLEAR     52  39  62 CALM      30.34S
ANGEL FIRE     PTSUNNY   41  40  98 CALM      30.42S FOG

$$
NMZ402-403-502-505>509-281100-
WESTCENTRAL MOUNTAINS/SOUTHWEST MOUNTAINS

CITY           SKY/WX    TMP DP  RH WIND       PRES   REMARKS
GALLUP         FAIR      54  52  93 CALM      30.30F
GRANTS         FAIR      52  52  99 CALM      30.32S
SILVER CITY      N/A     63  52  67 NW12      30.20S

$$
NMZ407-409-411-412-281100-
SOUTHERN DESERTS

CITY           SKY/WX    TMP DP  RH WIND       PRES   REMARKS
LORDSBURG      FAIR      68  55  64 W9        30.11F
DEMING         FAIR      67  56  67 S3        30.10F
LAS CRUCES     FAIR      68  57  67 CALM      30.11S
HOLLOMAN AFB   CLOUDY    73  56  56 NE6       30.06S
ALAMOGORDO     PTCLDY    72  55  56 NW6       30.08S
T OR C         FAIR      69  54  58 NW8       30.14S

$$
NMZ519>523-281100-
CENTRAL VALLEYS/CENTRAL HIGHLANDS

CITY           SKY/WX    TMP DP  RH WIND       PRES   REMARKS
ALBUQUERQUE    PTCLDY    65  54  67 SE7       30.20S
DOUBLE EAGLE   CLEAR     59  52  76 NW3       30.24S
MORIARTY ARPT  FAIR      58  50  76 NE3       30.25S
CLINES CORNERS CLEAR     59  49  69 N8        30.28R
BELEN          FAIR      63  56  79 CALM      30.19S
SOCORRO        FAIR      66  57  73 N5        30.16S

$$
NMZ524>526-539-540-281100-
SOUTHCENTRAL MOUNTAINS

CITY           SKY/WX    TMP DP  RH WIND       PRES   REMARKS
RUIDOSO        PTCLDY    63  48  59 MISG      30.29S

$$
NMZ527>531-281100-
NORTHEAST HIGHLANDS/NORTHEAST PLAINS

CITY           SKY/WX    TMP DP  RH WIND       PRES   REMARKS
LAS VEGAS      PTCLDY    55  49  80 N8        30.27F
RATON          PTCLDY    56  51  84 CALM      30.23R
CLAYTON        CLOUDY    64  57  78 N7        30.13S

$$
NMZ532>537-281100-
EASTCENTRAL PLAINS

CITY           SKY/WX    TMP DP  RH WIND       PRES   REMARKS
TUCUMCARI      PTCLDY    67  58  72 N8        30.04S
CANNON AFB     PTCLDY    69  55  60 SW9       30.07F
CLOVIS AIRPORT FAIR      70  54  56 SW10      30.09R

$$
NMZ028-029-538-281100-
SOUTHEAST PLAINS

CITY           SKY/WX    TMP DP  RH WIND       PRES   REMARKS
ROSWELL        MOCLDY    69  56  62 NW7       30.05R
ARTESIA        PTCLDY    70  57  64 NW7       30.04S
CARLSBAD       NOT AVBL
HOBBS            N/A     70  52  52 S7        30.07S


$$


USA.gov is the U.S. government's official web portal to all federal, state and local government web resources and services.